Location: Unspecified
(43.1763°N, 179.4719°W)
Time: 10:00:20
(UTC-04:00)

Cosmos 2058 - Visible Passes

Search period start: 20 May 2019 00:00
Search period end: 30 May 2019 00:00
Orbit: 561 x 585 km, 82.5° (Epoch: 19 May)

Date Brightness Start Highest point End Pass type
(mag) Time Alt. Az. Time Alt. Az. Time Alt. Az.
21 May 6.1 10:31:24 10° E 10:31:46 10° E 10:32:08 10° ENE visible
22 May 5.7 10:32:37 10° ESE 10:34:39 13° E 10:36:41 10° NE visible
23 May 5.5 10:34:49 10° SE 10:37:33 18° E 10:40:19 10° NE visible
24 May 5.1 10:37:15 10° SE 10:40:29 23° E 10:43:43 10° NE visible
25 May 4.6 10:39:51 10° SSE 10:43:25 30° E 10:47:00 10° NNE visible
26 May 4.1 10:42:34 10° SSE 10:46:23 39° E 10:50:13 10° NNE visible
27 May 3.5 10:45:40 12° S 10:49:21 53° E 10:53:21 10° NNE visible
28 May 3.0 10:48:59 15° S 10:52:20 72° E 10:56:26 10° NNE visible
29 May 2.8 10:52:16 17° S 10:55:21 85° W 10:59:28 10° N visible
